TimeHST,TemperatureF,Dew PointF,Humidity,Sea Level PressureIn,VisibilityMPH,Wind Direction,Wind SpeedMPH,Gust SpeedMPH,PrecipitationIn,Events,Conditions,WindDirDegrees,DateUTC
12:57 AM,73.4,68.0,83,29.96,10.0,ENE,5.8,-,N/A,,Scattered Clouds,70,2013-07-03 10:57:00
1:57 AM,73.4,66.9,80,29.95,10.0,ENE,6.9,-,N/A,,Scattered Clouds,70,2013-07-03 11:57:00
2:57 AM,73.4,66.9,80,29.94,10.0,ENE,4.6,-,N/A,,Mostly Cloudy,60,2013-07-03 12:57:00
3:13 AM,-9999,-9999,N/A,29.95,-9999.0,East,9.2,-,0.00,Rain,Light Rain,80,2013-07-03 13:13:00
3:20 AM,-9999,-9999,N/A,29.96,-9999.0,ENE,9.2,-,0.00,Rain,Heavy Rain,60,2013-07-03 13:20:00
3:27 AM,73.4,66.2,78,29.96,-9999.0,NE,6.9,-,0.00,Rain,Light Rain,50,2013-07-03 13:27:00
3:57 AM,73.4,66.9,80,29.95,7.0,East,3.5,-,0.00,,Overcast,80,2013-07-03 13:57:00
4:57 AM,73.4,69.1,86,29.95,7.0,East,4.6,-,N/A,,Overcast,80,2013-07-03 14:57:00
5:57 AM,73.4,68.0,83,29.97,7.0,ENE,3.5,-,0.00,Rain,Light Rain,60,2013-07-03 15:57:00
6:57 AM,75.2,68.0,78,29.98,7.0,East,6.9,-,0.00,,Overcast,80,2013-07-03 16:57:00
7:57 AM,76.3,68.0,75,29.99,7.0,ENE,8.1,-,N/A,,Mostly Cloudy,70,2013-07-03 17:57:00
8:57 AM,77.0,69.1,76,30.00,7.0,ENE,10.4,-,N/A,,Overcast,60,2013-07-03 18:57:00
9:57 AM,78.8,70.0,74,30.01,7.0,ENE,9.2,16.1,N/A,,Overcast,60,2013-07-03 19:57:00
10:57 AM,80.6,69.1,68,30.01,7.0,ENE,6.9,-,N/A,,Mostly Cloudy,70,2013-07-03 20:57:00
11:57 AM,80.6,68.0,65,30.00,7.0,East,9.2,-,N/A,,Mostly Cloudy,80,2013-07-03 21:57:00
12:57 PM,82.4,68.0,62,30.00,7.0,ENE,11.5,16.1,N/A,,Mostly Cloudy,70,2013-07-03 22:57:00
1:57 PM,84.2,66.0,54,29.98,7.0,ENE,9.2,-,N/A,,Mostly Cloudy,60,2013-07-03 23:57:00
2:57 PM,84.2,68.0,58,29.97,7.0,ENE,9.2,-,N/A,,Mostly Cloudy,60,2013-07-04 00:57:00
3:57 PM,80.6,66.0,61,29.96,7.0,NE,10.4,-,N/A,,Mostly Cloudy,50,2013-07-04 01:57:00
4:57 PM,80.6,68.0,65,29.96,7.0,East,9.2,-,N/A,,Mostly Cloudy,80,2013-07-04 02:57:00
5:57 PM,78.8,66.9,67,29.96,7.0,NE,8.1,-,N/A,,Mostly Cloudy,50,2013-07-04 03:57:00
6:57 PM,82.0,66.9,60,29.98,7.0,ENE,5.8,-,N/A,,Mostly Cloudy,70,2013-07-04 04:57:00
7:57 PM,81.0,66.9,62,29.99,7.0,East,4.6,-,N/A,,Mostly Cloudy,80,2013-07-04 05:57:00
8:57 PM,77.0,66.9,71,30.00,7.0,ENE,5.8,-,N/A,,Partly Cloudy,70,2013-07-04 06:57:00
9:04 PM,-9999,-9999,N/A,-9999,-9999.0,North,-9999.0,-,N/A,,Unknown,0,2013-07-04 07:04:00
9:57 PM,75.2,66.9,75,30.01,7.0,East,4.6,-,N/A,,Partly Cloudy,80,2013-07-04 07:57:00
10:57 PM,75.7,66.9,74,30.02,7.0,ENE,3.5,-,N/A,,Clear,60,2013-07-04 08:57:00
11:57 PM,74.8,66.9,76,30.02,7.0,Calm,Calm,-,N/A,,Clear,0,2013-07-04 09:57:00